EW8570 Weather Reports


Display with metric or nautical units.
time (UTC)temp
F
wind
direction
speed
MPH
gust
MPH
rain 1hr
in
rain 24hr
in
rain mn
in
humidity
%
barometer
mb
20260510173300 81 221 3.0 8.0 0.00 0.00 0.00 39 1014.2
20260510173133 81 343 2.0 7.0 0.00 0.00 0.00 45 1014.4
20260510172807 81 296 3.0 8.0 0.00 0.00 0.00 40 1014.3
20260510172332 82 219 2.0 7.0 0.00 0.00 0.00 41 1014.3
20260510171251 81 244 2.0 8.0 0.00 0.00 0.00 39 1014.5
20260510170751 80 254 2.0 8.0 0.00 0.00 0.00 43 1014.5
20260510170254 80 5 2.0 4.0 0.00 0.00 0.00 39 1014.5
20260510170100 80 291 1.0 5.0 0.00 0.00 0.00 48 1014.5
20260510165803 80 305 3.0 8.0 0.00 0.00 0.00 42 1014.5
20260510165326 80 298 2.0 8.0 0.00 0.00 0.00 39 1014.5
20260510164253 79 219 2.0 6.0 0.00 0.00 0.00 39 1014.6
20260510163742 79 167 2.0 7.0 0.00 0.00 0.00 40 1014.6
20260510163243 79 223 2.0 7.0 0.00 0.00 0.00 44 1014.7
20260510163221 79 257 1.0 4.0 0.00 0.00 0.00 41 1014.8
20260510162754 79 212 2.0 8.0 0.00 0.00 0.00 42 1014.7
20260510162313 78 213 2.0 8.0 0.00 0.00 0.00 42 1014.7
20260510161727 79 237 2.0 8.0 0.00 0.00 0.00 39 1014.8
20260510161246 79 224 2.0 8.0 0.00 0.00 0.00 40 1014.7
20260510160217 79 321 1.0 6.0 0.00 0.00 0.00 43 1014.8
20260510155831 78 259 2.0 10.0 0.00 0.00 0.00 43 1014.8
20260510155657 78 116 2.0 6.0 0.00 0.00 0.00 44 1014.7
20260510155219 78 344 2.0 10.0 0.00 0.00 0.00 40 1014.8
20260510154135 78 88 2.0 7.0 0.00 0.00 0.00 41 1014.9
20260510153632 78 304 2.0 6.0 0.00 0.00 0.00 40 1014.9
20260510153623 76 238 2.0 10.0 0.00 0.00 0.00 48 1015.2
20260510153619 77 290 3.0 8.0 0.00 0.00 0.00 47 1015.3
20260510153153 77 323 3.0 8.0 0.00 0.00 0.00 41 1015.0
20260510152704 77 277 3.0 9.0 0.00 0.00 0.00 44 1015.0
20260510152215 77 261 3.0 9.0 0.00 0.00 0.00 42 1015.2
20260510151628 77 41 3.0 9.0 0.00 0.00 0.00 44 1015.2
20260510151140 77 319 3.0 9.0 0.00 0.00 0.00 46 1015.2
20260510150127 76 325 2.0 8.0 0.00 0.00 0.00 47 1015.2
20260510145228 60 224 0.0 2.0 0.00 0.00 0.00 82 1015.2
20260510145157 69 89 1.0 5.0 0.00 0.00 0.00 70 1015.2
20260510145124 67 218 0.0 2.0 0.00 0.00 0.00 69 1015.1
20260510145040 75 327 3.0 10.0 0.00 0.00 0.00 48 1015.2
20260510144917 65 232 1.0 3.0 0.00 0.00 0.00 72 1015.3
20260510144841 60 224 0.0 1.0 0.00 0.00 0.00 80 1015.2
20260510144544 74 281 4.0 11.0 0.00 0.00 0.00 49 1015.1
20260510144058 74 5 3.0 11.0 0.00 0.00 0.00 51 1015.0
20260510143625 73 12 3.0 8.0 0.00 0.00 0.00 52 1015.1
20260510143138 72 320 1.0 7.0 0.00 0.00 0.00 55 1015.0
20260510142645 71 19 1.0 4.0 0.00 0.00 0.00 63 1015.1
20260510142217 70 296 2.0 5.0 0.00 0.00 0.00 66 1015.2
20260510140839 59 223 0.0 2.0 0.00 0.00 0.00 84 1015.2
20260510140512 66 218 0.0 2.0 0.00 0.00 0.00 69 1015.2
20260510140032 66 218 1.0 3.0 0.00 0.00 0.00 69 1015.2
20260510135021 64 309 1.0 4.0 0.00 0.00 0.00 71 1015.2
20260510134537 63 306 1.0 4.0 0.00 0.00 0.00 72 1015.2
20260510134056 62 230 0.0 3.0 0.00 0.00 0.00 75 1015.2
20260510133612 61 246 0.0 2.0 0.00 0.00 0.00 78 1015.2
20260510131436 58 219 0.0 0.0 0.00 0.00 0.00 85 1015.2
20260510130938 57 272 0.0 1.0 0.00 0.00 0.00 87 1015.2
20260510130421 56 217 0.0 2.0 0.00 0.00 0.00 89 1015.2
20260510125923 56 198 0.0 2.0 0.00 0.00 0.00 90 1015.1
20260510125419 56 187 0.0 2.0 0.00 0.00 0.00 90 1015.1
20260510124923 56 187 0.0 1.0 0.00 0.00 0.00 90 1015.1
20260510124422 56 40 0.0 2.0 0.00 0.00 0.00 91 1015.1
20260510123919 55 40 0.0 2.0 0.00 0.00 0.00 91 1015.0
20260510123820 54 229 1.0 3.0 0.00 0.00 0.00 90 1014.9
20260510123441 55 355 0.0 2.0 0.00 0.00 0.00 91 1014.9
20260510122421 54 22 1.0 3.0 0.00 0.00 0.00 91 1014.9
20260510121917 53 123 0.0 2.0 0.00 0.00 0.00 91 1014.7
20260510121418 53 165 0.0 3.0 0.00 0.00 0.00 90 1014.7
20260510121014 51 32 0.0 2.0 0.00 0.00 0.00 90 1014.5
20260510120914 52 32 0.0 3.0 0.00 0.00 0.00 90 1014.7
20260510120449 51 32 0.0 2.0 0.00 0.00 0.00 90 1014.5
20260510115414 51 22 0.0 2.0 0.00 0.00 0.00 89 1014.5
20260510114914 50 23 0.0 2.0 0.00 0.00 0.00 90 1014.3
20260510114408 50 22 0.0 2.0 0.00 0.00 0.00 89 1014.2
20260510113913 49 348 0.0 2.0 0.00 0.00 0.00 89 1014.2
20260510113417 48 128 0.0 2.0 0.00 0.00 0.00 89 1014.1
20260510112910 48 227 0.0 1.0 0.00 0.00 0.00 89 1013.9
20260510112414 47 88 0.0 1.0 0.00 0.00 0.00 88 1013.7
20260510111915 47 88 0.0 2.0 0.00 0.00 0.00 88 1013.7
20260510111857 47 287 0.0 2.0 0.00 0.00 0.00 88 1013.5
20260510111442 47 88 0.0 2.0 0.00 0.00 0.00 88 1013.6
20260510110405 46 219 0.0 1.0 0.00 0.00 0.00 88 1013.4
20260510110330 46 258 0.0 0.0 0.00 0.00 0.00 88 1013.4
20260510105920 46 274 0.0 0.0 0.00 0.00 0.00 88 1013.4
20260510104845 46 258 0.0 1.0 0.00 0.00 0.00 87 1013.3
20260510104338 46 258 0.0 2.0 0.00 0.00 0.00 87 1013.2
20260510103841 46 256 0.0 2.0 0.00 0.00 0.00 87 1013.2
20260510103327 46 161 0.0 1.0 0.00 0.00 0.00 87 1013.1
20260510102825 47 161 0.0 1.0 0.00 0.00 0.00 88 1013.1
20260510102809 47 327 0.0 0.0 0.00 0.00 0.00 87 1012.8
20260510102353 47 206 0.0 1.0 0.00 0.00 0.00 88 1012.9
20260510101307 47 335 0.0 2.0 0.00 0.00 0.00 87 1012.8
20260510101252 47 248 1.0 2.0 0.00 0.00 0.00 87 1012.8
20260510100833 47 344 1.0 2.0 0.00 0.00 0.00 87 1012.8
20260510095748 47 246 0.0 1.0 0.00 0.00 0.00 87 1012.7
20260510095238 47 246 0.0 2.0 0.00 0.00 0.00 87 1012.7
20260510095058 47 229 0.0 0.0 0.00 0.00 0.00 87 1012.5
20260510094759 47 246 0.0 2.0 0.00 0.00 0.00 87 1012.6
20260510093721 47 229 0.0 0.0 0.00 0.00 0.00 87 1012.6
20260510093222 48 229 0.0 0.0 0.00 0.00 0.00 87 1012.6
20260510092713 48 229 0.0 0.0 0.00 0.00 0.00 87 1012.5
20260510092206 48 229 0.0 0.0 0.00 0.00 0.00 87 1012.4
20260510092037 48 229 0.0 0.0 0.00 0.00 0.00 87 1012.3
20260510091726 48 229 0.0 0.0 0.00 0.00 0.00 87 1012.4
20260510090645 49 229 0.0 0.0 0.00 0.00 0.00 87 1012.3
20260510090139 49 229 0.0 0.0 0.00 0.00 0.00 87 1012.3
20260510085640 49 229 0.0 0.0 0.00 0.00 0.00 87 1012.2
20260510085131 49 229 0.0 0.0 0.00 0.00 0.00 87 1012.1
20260510084624 49 229 0.0 2.0 0.00 0.00 0.00 88 1012.0
20260510084121 49 226 0.0 2.0 0.00 0.00 0.00 87 1012.0
20260510083609 49 226 1.0 4.0 0.00 0.00 0.00 87 1012.0
20260510083110 49 215 1.0 4.0 0.00 0.00 0.00 87 1012.0
20260510082559 49 188 0.0 2.0 0.00 0.00 0.00 87 1011.9
20260510082056 50 159 0.0 2.0 0.00 0.00 0.00 87 1011.8
20260510081546 50 159 0.0 2.0 0.00 0.00 0.00 87 1011.7
20260510081044 50 298 0.0 1.0 0.00 0.00 0.00 87 1011.6
20260510080552 50 298 0.0 1.0 0.00 0.00 0.00 87 1011.6
20260510080030 50 298 0.0 1.0 0.00 0.00 0.00 87 1011.5
20260510075522 51 298 0.0 1.0 0.00 0.00 0.00 87 1011.5
20260510075021 51 298 0.0 1.0 0.00 0.00 0.00 87 1011.5
20260510074515 51 298 0.0 1.0 0.00 0.00 0.00 87 1011.5
20260510074005 51 308 0.0 0.0 0.00 0.00 0.00 87 1011.4
20260510073457 51 45 0.0 0.0 0.00 0.00 0.00 87 1011.5
20260510073348 51 70 0.0 0.0 0.00 0.00 0.00 87 1011.4
20260510073024 51 70 0.0 0.0 0.00 0.00 0.00 87 1011.5
20260510072427 50 70 0.0 2.0 0.00 0.00 0.00 86 1011.3
20260510072014 51 70 0.0 0.0 0.00 0.00 0.00 87 1011.4
20260510070940 50 63 1.0 2.0 0.00 0.00 0.00 86 1011.3
20260510070422 51 63 1.0 2.0 0.00 0.00 0.00 86 1011.3
20260510065924 51 63 1.0 2.0 0.00 0.00 0.00 86 1011.4
20260510065421 51 63 1.0 3.0 0.00 0.00 0.00 86 1011.5
20260510064942 51 46 1.0 3.0 0.00 0.00 0.00 85 1011.5
20260510064420 51 355 0.0 3.0 0.00 0.00 0.00 85 1011.4
20260510063924 51 325 0.0 3.0 0.00 0.00 0.00 85 1011.4
20260510063419 51 259 0.0 0.0 0.00 0.00 0.00 85 1011.5
20260510062922 52 259 0.0 0.0 0.00 0.00 0.00 85 1011.5
20260510062413 52 259 0.0 0.0 0.00 0.00 0.00 85 1011.6
20260510061911 52 259 0.0 0.0 0.00 0.00 0.00 85 1011.7
20260510061807 52 259 0.0 0.0 0.00 0.00 0.00 85 1011.8
20260510061442 52 259 0.0 0.0 0.00 0.00 0.00 85 1011.8
20260510060415 53 259 0.0 0.0 0.00 0.00 0.00 85 1011.8
20260510055907 53 259 0.0 0.0 0.00 0.00 0.00 85 1011.7
20260510055411 53 259 0.0 0.0 0.00 0.00 0.00 84 1011.8
20260510054904 53 259 0.0 0.0 0.00 0.00 0.00 84 1011.9
20260510054410 53 259 0.0 0.0 0.00 0.00 0.00 84 1011.8
20260510053904 53 259 0.0 0.0 0.00 0.00 0.00 84 1011.8
20260510053413 53 259 0.0 0.0 0.00 0.00 0.00 84 1011.8
20260510052900 54 259 0.0 0.0 0.00 0.00 0.00 84 1011.9
20260510052352 54 259 0.0 0.0 0.00 0.00 0.00 84 1012.0
20260510051857 54 259 0.0 0.0 0.00 0.00 0.00 84 1012.0
20260510051351 54 259 0.0 0.0 0.00 0.00 0.00 83 1012.0
20260510050845 54 259 0.0 0.0 0.00 0.00 0.00 83 1011.9
20260510050348 54 259 0.0 0.0 0.00 0.00 0.00 83 1012.0
20260510045842 54 259 0.0 0.0 0.00 0.00 0.00 83 1012.0
20260510045347 55 259 0.0 0.0 0.00 0.00 0.00 83 1011.9
20260510044848 55 259 0.0 0.0 0.00 0.00 0.00 83 1011.9
20260510044345 55 259 0.0 0.0 0.00 0.00 0.00 83 1011.8
20260510043844 55 259 0.0 0.0 0.00 0.00 0.00 82 1011.9
20260510043349 56 259 0.0 0.0 0.00 0.00 0.00 82 1011.8
20260510043229 56 259 0.0 0.0 0.00 0.00 0.00 82 1011.8
20260510042900 56 259 0.0 0.0 0.00 0.00 0.00 82 1011.9
20260510042422 56 259 0.0 0.0 0.00 0.00 0.00 82 1011.8
20260510041557 57 259 0.0 0.0 0.00 0.00 0.00 82 1011.9
20260510041402 57 259 0.0 0.0 0.00 0.00 0.00 82 1011.8
20260510040923 57 259 0.0 0.0 0.00 0.00 0.00 82 1011.7
20260510035849 57 202 0.0 0.0 0.00 0.00 0.00 81 1011.9
20260510035815 58 202 0.0 0.0 0.00 0.00 0.00 82 1011.9
20260510035409 57 202 0.0 0.0 0.00 0.00 0.00 81 1011.9
20260510034348 58 202 0.0 0.0 0.00 0.00 0.00 81 1011.9
20260510034216 59 202 0.0 0.0 0.00 0.00 0.00 81 1011.7
20260510033856 58 202 0.0 0.0 0.00 0.00 0.00 81 1011.8
20260510033426 59 202 0.0 0.0 0.00 0.00 0.00 81 1011.8
20260510032343 59 202 0.0 0.0 0.00 0.00 0.00 81 1011.7
20260510031836 60 202 0.0 0.0 0.00 0.00 0.00 81 1011.7
20260510031342 60 202 0.0 0.0 0.00 0.00 0.00 81 1011.7
20260510030835 60 202 0.0 0.0 0.00 0.00 0.00 80 1011.6
20260510030633 61 202 0.0 0.0 0.00 0.00 0.00 79 1011.5
20260510030351 60 202 0.0 0.0 0.00 0.00 0.00 80 1011.6
20260510025904 61 202 0.0 0.0 0.00 0.00 0.00 80 1011.6
20260510025408 61 202 0.0 0.0 0.00 0.00 0.00 79 1011.6
20260510024318 61 202 0.0 0.0 0.00 0.00 0.00 79 1011.5
20260510023808 62 202 0.0 0.0 0.00 0.00 0.00 78 1011.4
20260510023302 62 202 0.0 0.0 0.00 0.00 0.00 78 1011.4
20260510022758 62 202 0.0 0.0 0.00 0.00 0.00 77 1011.3
20260510022249 63 202 0.0 0.0 0.00 0.00 0.00 77 1011.2
20260510021900 64 202 0.0 0.0 0.00 0.00 0.00 77 1011.1
20260510021750 63 202 0.0 0.0 0.00 0.00 0.00 77 1011.2
20260510021311 64 202 0.0 0.0 0.00 0.00 0.00 77 1011.2
20260510020224 65 202 0.0 0.0 0.00 0.00 0.00 76 1011.1
20260510015721 65 202 0.0 0.0 0.00 0.00 0.00 76 1011.0
20260510015216 65 202 0.0 0.0 0.00 0.00 0.00 75 1010.8
20260510014709 65 202 0.0 0.0 0.00 0.00 0.00 75 1010.7
20260510014201 66 202 0.0 0.0 0.00 0.00 0.00 74 1010.7
20260510013659 66 202 0.0 0.0 0.00 0.00 0.00 73 1010.6
20260510013147 67 202 0.0 0.0 0.00 0.00 0.00 73 1010.4
20260510012645 67 202 0.0 0.0 0.00 0.00 0.00 72 1010.3
20260510012142 67 202 0.0 0.0 0.00 0.00 0.00 72 1010.1
20260510011633 67 202 0.0 0.0 0.00 0.00 0.00 72 1010.1
20260510011143 67 202 0.0 0.0 0.00 0.00 0.00 72 1010.1
20260510010639 68 202 0.0 0.0 0.00 0.00 0.00 71 1010.0
20260510010138 68 202 0.0 0.0 0.00 0.00 0.00 70 1009.8
20260510005635 69 202 0.0 0.0 0.00 0.00 0.00 69 1009.7
20260510005129 69 202 0.0 0.0 0.00 0.00 0.00 69 1009.6
20260510004635 69 202 0.0 0.0 0.00 0.00 0.00 69 1009.4
20260510004129 69 197 0.0 0.0 0.00 0.00 0.00 69 1009.3
20260510003633 69 198 0.0 0.0 0.00 0.00 0.00 68 1009.4
20260510003142 70 197 0.0 0.0 0.00 0.00 0.00 68 1009.1
20260510002649 70 207 0.0 3.0 0.00 0.00 0.00 67 1009.2
20260510002149 70 205 1.0 4.0 0.00 0.00 0.00 66 1009.2
20260510001626 71 238 1.0 4.0 0.00 0.00 0.00 65 1009.2
20260510001130 71 244 1.0 3.0 0.00 0.00 0.00 63 1009.3
20260510000633 72 215 0.0 2.0 0.00 0.00 0.00 61 1009.1
20260510000619 73 242 0.0 2.0 0.00 0.00 0.00 61 1009.1
20260510000545 73 155 1.0 3.0 0.00 0.00 0.00 62 1009.0
20260510000151 72 5 0.0 2.0 0.00 0.00 0.00 58 1009.1
20260509235711 72 244 0.0 2.0 0.00 0.00 0.00 61 1009.0
20260509234704 73 198 1.0 2.0 0.00 0.00 0.00 61 1009.0
20260509233730 74 15 2.0 5.0 0.00 0.00 0.00 61 1008.9
20260509233615 73 178 1.0 3.0 0.00 0.00 0.00 62 1009.1
20260509233137 73 225 2.0 5.0 0.00 0.00 0.00 60 1009.0
20260509232315 74 200 1.0 2.0 0.00 0.00 0.00 61 1008.7
20260509232104 74 238 2.0 7.0 0.00 0.00 0.00 60 1008.8
20260509231620 74 229 1.0 7.0 0.00 0.00 0.00 60 1008.7
20260509230533 74 204 1.0 3.0 0.00 0.00 0.00 61 1008.6
20260509230157 74 222 0.0 2.0 0.00 0.00 0.00 61 1008.3
20260509230034 74 204 1.0 3.0 0.00 0.00 0.00 61 1008.6
20260509225601 74 217 1.0 3.0 0.00 0.00 0.00 61 1008.5
20260509224535 74 332 0.0 0.0 0.00 0.00 0.00 62 1008.2
20260509224029 74 332 0.0 2.0 0.00 0.00 0.00 60 1008.2
20260509223955 75 76 0.0 1.0 0.00 0.00 0.00 58 1008.4
20260509223605 74 340 0.0 2.0 0.00 0.00 0.00 59 1008.3
20260509222537 75 96 0.0 2.0 0.00 0.00 0.00 57 1008.3
20260509222036 75 111 0.0 2.0 0.00 0.00 0.00 59 1008.2
20260509221538 75 111 0.0 2.0 0.00 0.00 0.00 57 1008.3
20260509221034 75 112 0.0 1.0 0.00 0.00 0.00 56 1008.3
20260509220534 75 182 1.0 3.0 0.00 0.00 0.00 55 1008.3
20260509220034 75 159 1.0 3.0 0.00 0.00 0.00 55 1008.3
20260509215534 76 165 1.0 4.0 0.00 0.00 0.00 52 1008.2
20260509215156 79 246 1.0 3.0 0.00 0.00 0.00 50 1007.9
20260509215031 77 232 1.0 5.0 0.00 0.00 0.00 52 1008.2
20260509214602 78 262 1.0 5.0 0.00 0.00 0.00 50 1008.2
20260509213531 79 254 1.0 3.0 0.00 0.00 0.00 50 1007.8
20260509213034 78 240 1.0 3.0 0.00 0.00 0.00 53 1007.9
20260509212526 78 196 2.0 4.0 0.00 0.00 0.00 51 1007.9
20260509212033 77 189 2.0 6.0 0.00 0.00 0.00 55 1007.8
20260509211536 77 258 2.0 6.0 0.00 0.00 0.00 51 1007.9
20260509211206 76 191 2.0 5.0 0.00 0.00 0.00 54 1007.6
20260509211134 76 259 2.0 7.0 0.00 0.00 0.00 53 1007.6
20260509211029 77 292 2.0 6.0 0.00 0.00 0.00 52 1007.8
20260509210553 77 232 2.0 6.0 0.00 0.00 0.00 51 1007.8
20260509210117 77 206 2.0 7.0 0.00 0.00 0.00 52 1007.7
20260509205628 77 273 2.0 7.0 0.00 0.00 0.00 53 1007.6
20260509204612 76 259 2.0 7.0 0.00 0.00 0.00 53 1007.7
20260509204034 76 251 2.0 5.0 0.00 0.00 0.00 53 1007.8
20260509203550 76 154 2.0 6.0 0.00 0.00 0.00 53 1007.8
20260509203111 76 244 2.0 6.0 0.00 0.00 0.00 54 1007.7
20260509202020 76 172 2.0 9.0 0.00 0.00 0.00 56 1007.7
20260509201523 75 201 2.0 9.0 0.00 0.00 0.00 58 1007.7
20260509201024 75 206 2.0 6.0 0.00 0.00 0.00 58 1007.8
20260509200523 74 193 3.0 8.0 0.00 0.00 0.00 59 1007.8
20260509200024 74 243 3.0 8.0 0.00 0.00 0.00 57 1007.8
20260509195518 73 249 1.0 5.0 0.00 0.00 0.00 59 1007.9
20260509195021 73 117 1.0 3.0 0.00 0.00 0.00 56 1008.0
20260509194517 73 196 1.0 5.0 0.00 0.00 0.00 55 1008.3
20260509194017 74 215 1.0 5.0 0.00 0.00 0.00 56 1008.3
20260509193512 74 213 2.0 5.0 0.00 0.00 0.00 55 1008.3
20260509193012 75 223 3.0 11.0 0.00 0.00 0.00 55 1008.2
20260509192509 75 296 3.0 11.0 0.00 0.00 0.00 54 1008.3
20260509192011 75 273 2.0 5.0 0.00 0.00 0.00 53 1008.3
20260509191507 76 190 2.0 4.0 0.00 0.00 0.00 55 1008.2
20260509191004 76 138 1.0 5.0 0.00 0.00 0.00 55 1008.3
20260509190454 75 265 1.0 5.0 0.00 0.00 0.00 54 1008.3
20260509185950 76 244 1.0 6.0 0.00 0.00 0.00 57 1008.2
20260509185807 69 309 3.0 12.0 0.00 0.00 0.00 64 1010.0
20260509185725 70 171 2.0 7.0 0.00 0.00 0.00 68 1009.7
20260509185453 76 219 2.0 6.0 0.00 0.00 0.00 55 1008.2
20260509185009 75 205 2.0 5.0 0.00 0.00 0.00 60 1008.2
20260509184537 74 209 2.0 5.0 0.00 0.00 0.00 55 1008.2
20260509184310 75 37 3.0 7.0 0.00 0.00 0.00 56 1008.6
20260509183944 75 162 2.0 7.0 0.00 0.00 0.00 54 1008.4
20260509183453 76 167 2.0 7.0 0.00 0.00 0.00 55 1008.5
20260509182754 74 210 3.0 12.0 0.00 0.00 0.00 59 1008.8
20260509182438 75 205 2.0 7.0 0.00 0.00 0.00 58 1008.7
20260509182005 74 202 3.0 10.0 0.00 0.00 0.00 59 1008.8
20260509181339 73 219 2.0 5.0 0.00 0.00 0.00 61 1009.1
20260509181308 73 237 2.0 7.0 0.00 0.00 0.00 61 1009.2
20260509180927 74 234 3.0 12.0 0.00 0.00 0.00 57 1008.9
20260509180447 74 240 3.0 9.0 0.00 0.00 0.00 54 1009.0
20260509180013 74 221 3.0 9.0 0.00 0.00 0.00 60 1009.0
20260509175535 74 264 2.0 8.0 0.00 0.00 0.00 60 1009.0
20260509173948 72 251 3.0 8.0 0.00 0.00 0.00 59 1009.3
20260509173507 72 285 2.0 8.0 0.00 0.00 0.00 59 1009.3